Location: Hodgeman County Ambulance
(38.0844°N, 99.8949°W)
Time: 23:28:26
(UTC+00:00)

Cosmos 1626 Rocket - Pass Details

Date: 27 October 2020
Orbit: 602 x 632 km, 82.5° (Epoch: 03 December)

Event Time Altitude Azimuth Distance (km) Brightness Sun altitude
Rises 12:05:41 0° 178° (S) 2,900 7.1 -11.4°
Reaches altitude 10° 12:07:54 10° 176° (S) 2,000 6.3 -11.0°
Maximum altitude 12:12:18 65° 95° (E) 698 4.1 -10.2°
Drops below altitude 10° 12:16:44 10° 14° (NNE) 2,021 6.3 -9.3°
Sets 12:19:00 0° 11° (N) 2,933 7.1 -8.9°
